CAPE
18 9 2 0 2 0 0 0 0 0 0 0 0 0 0 0 0 0 0 0 0 0 0 0 0 0 0 0 0 0 0 0 0 0 0 0 0 0 0 0 0 0 0 0
28 7 1 0 6 0 0 1 2 1 2 0 0 0 0 0 0 0 0 0 0 0 0 0 0 0 0 0 0 0 0 0 0 0 0 0 0 0 0 0 0 0 0 0
27 18 8 2 10 0 0 0 0 6 12 0 0 0 0 0 0 0 0 0 0 0 0 0 0 0 0 0 0 0 0 0 0 0 0 0 0 0 0 0 0 0 0 0
21 4 12 3 2 0 0 0 0 0 0 0 0 0 0 0 0 0 0 0 0 0 0 0 0 0 0 0 0 0 0 0 0 0 0 0 0 0 0 0 0 0 0 0
1 0 11 2 0 0 0 4 0 0 0 0 0 0 0 0 0 0 0 0 0 0 0 0 0 0 0 0 0 0 0 0 0 0 0 0 0 0 0 0 0 0 0 0
12 2 0 0 0 0 0 0 0 0 0 0 0 0 0 0 0 0 0 0 0 0 0 0 0 0 0 0 0 0 0 0 0 0 0 0 0 0 0 0 0 1 1 1
12 6 2 0 0 0 0 0 0 0 0 0 0 0 0 0 0 0 0 0 0 0 0 0 0 0 0 0 0 0 0 0 0 0 0 0 0 0 0 1 0 0 1 2
1 0 0 0 0 2 0 0 0 0 0 0 0 0 0 0 0 0 0 0 0 0 0 0 0 0 0 0 0 0 0 0 0 0 0 0 1 0 0 2 0 0 0 1
0 0 0 0 0 0 0 0 0 0 0 0 0 0 0 0 0 0 0 0 0 0 0 0 0 0 0 0 0 0 0 0 0 0 0 0 0 0 0 1 0 2 2 0
0 0 0 0 0 0 0 0 0 0 0 0 0 0 0 0 0 0 0 0 0 0 0 0 0 0 0 0 0 0 0 1 0 0 0 0 0 0 0 0 0 2 0 0
0 0 0 0 0 0 0 0 0 0 0 0 0 0 0 0 0 0 0 0 0 0 0 0 0 0 0 0 0 0 0 0 0 0 0 0 0 0 0 0 1 0 0 0
0 0 0 0 0 0 0 0 0 0 0 0 0 0 0 0 0 0 0 0 0 0 0 0 0 0 0 0 0 0 0 0 0 0 0 1 1 1 0 0 0 0 0 0
0 0 0 0 0 0 0 0 0 0 0 0 0 0 0 0 0 0 0 0 0 0 0 0 0 0 0 0 0 0 0 0 0 0 0 0 0 0 0 1 0 0 0 0
0 0 0 0 0 0 0 0 0 0 0 0 0 0 0 0 0 0 0 0 0 0 0 0 0 0 0 0 0 0 0 0 1 0 0 0 0 0 0 0 0 0 0 0
0 0 0 0 0 0 0 0 0 0 0 0 0 0 0 0 0 0 0 0 0 0 0 0 0 0 0 0 0 0 0 0 0 0 1 0 0 0 0 1 1 0 0 2
1 0 0 0 0 0 0 0 0 0 0 0 0 0 0 0 0 0 0 0 0 0 0 0 0 0 0 0 0 1 0 0 0 0 0 0 1 0 1 0 1 1 0 1
0 0 0 0 0 0 0 0 0 0 0 0 0 0 0 0 0 0 0 0 0 0 0 0 0 0 0 0 0 2 2 0 0 0 0 0 0 0 1 0 1 0 0 0
0 0 0 0 0 0 0 0 0 0 0 0 0 0 0 0 0 0 0 0 0 0 0 0 0 0 0 0 0 1 0 0 0 0 0 0 1 0 0 0 0 0 0 0
0 0 0 0 0 0 0 0 0 0 0 0 0 0 0 0 0 0 0 0 0 0 0 0 0 0 0 0 0 0 0 0 1 0 0 0 0 0 0 0 0 0 0 0
0 0 0 0 0 1 0 0 0 0 0 0 0 0 0 0 0 0 0 0 0 0 0 0 0 0 0 0 0 0 0 0 0 0 1 2 0 0 0 0 0 0 0 0
0 0 0 0 0 0 0 0 0 0 0 0 0 0 0 0 0 0 0 0 0 0 0 0 0 0 1 0 0 0 0 0 0 0 0 0 0 0 0 0 0 0 0 0
0 0 0 0 0 0 0 0 0 0 0 0 0 0 0 0 0 0 0 0 0 0 0 0 0 0 0 0 0 0 0 0 0 0 0 0 0 0 0 0 0 0 0 0
0 0 0 0 0 0 0 0 0 0 0 0 0 0 0 0 0 0 0 0 0 0 0 0 0 3 0 0 0 0 0 0 0 0 0 0 0 0 0 0 0 0 0 0
0 0 0 0 0 0 0 0 0 0 0 0 0 0 0 0 0 0 0 0 0 0 0 0 0 2 0 0 0 0 0 0 0 0 0 0 0 0 0 0 0 0 0 0
0 0 0 0 0 0 0 0 0 0 0 0 0 0 0 0 0 0 0 0 0 0 0 0 0 0 0 0 0 0 0 0 0 0 0 0 0 0 0 0 0 0 0 0
0 0 0 0 0 1 0 0 0 0 0 0 0 0 0 0 0 0 0 0 0 0 0 0 0 0 0 0 0 0 0 0 0 0 0 0 0 0 0 0 0 0 0 0
0 0 0 0 0 0 0 0 0 0 0 0 0 0 0 0 0 0 0 0 0 0 0 0 0 0 0 0 0 0 0 0 0 0 0 0 0 0 0 0 0 0 0 0
CIN
-0 -3 -11 -0 -0 -0 -0 -1 -0 -0 -0 -0 -0 -0 -0 -0 -0 -0 -0 -0 -0 -0 -0 -0 -0 -0 -0 -0 -0 -0 -0 -0 -0 -0 -0 -0 -0 -0 -0 -0 -0 -0 -0 -0
-0 -3 -12 -0 -0 -0 -0 -3 -0 -3 -3 -0 -0 -0 -0 -0 -0 -0 -0 -0 -0 -0 -0 -0 -0 -0 -0 -0 -0 -0 -0 -0 -0 -0 -0 -0 -0 -0 -0 -0 -0 -0 -0 -0
-0 -0 -1 -0 -0 -0 -0 -0 -0 -11 -1 -0 -0 -0 -0 -0 -0 -0 -0 -0 -0 -0 -0 -0 -0 -0 -0 -0 -0 -0 -0 -0 -0 -0 -0 -0 -0 -0 -0 -0 -0 -0 -0 -0
-0 -0 -0 -1 -6 -0 -0 -0 -0 -0 -0 -0 -0 -0 -0 -0 -0 -0 -0 -0 -0 -0 -0 -0 -0 -0 -0 -0 -0 -0 -0 -0 -0 -0 -0 -0 -0 -0 -0 -0 -0 -0 -0 -0
-5 -0 -0 -0 -0 -0 -0 -33 -0 -0 -0 -0 -0 -0 -0 -0 -0 -0 -0 -0 -0 -0 -0 -0 -0 -0 -0 -0 -0 -0 -0 -0 -0 -0 -0 -0 -0 -0 -0 -0 -0 -0 -0 -0
-0 -2 -0 -0 -0 -0 -0 -0 -0 -0 -0 -0 -0 -0 -0 -0 -0 -0 -0 -0 -0 -0 -0 -0 -0 -0 -0 -0 -0 -0 -0 -0 -0 -0 -0 -0 -0 -0 -0 -0 -0 -0 -0 -1
-0 -1 -14 -0 -0 -0 -0 -0 -0 -0 -0 -0 -0 -0 -0 -0 -0 -0 -0 -0 -0 -0 -0 -0 -0 -0 -0 -0 -0 -0 -0 -0 -0 -0 -0 -0 -0 -0 -0 -0 -0 -0 -0 -0
-0 -1 -1 -0 -0 -12 -0 -0 -0 -0 -0 -0 -0 -0 -0 -0 -0 -0 -0 -0 -0 -0 -0 -0 -0 -0 -0 -0 -0 -0 -0 -0 -0 -0 -0 -0 -0 -0 -0 -0 -0 -0 -0 -0
-0 -0 -0 -0 -0 -0 -0 -0 -0 -0 -0 -0 -0 -0 -0 -0 -0 -0 -0 -0 -0 -0 -0 -0 -0 -0 -0 -0 -0 -0 -0 -0 -0 -0 -0 -0 -0 -0 -0 -0 -0 -0 -0 -0
-0 -0 -0 -33 -0 -0 -0 -0 -0 -0 -0 -0 -0 -0 -0 -0 -0 -0 -0 -0 -0 -0 -0 -0 -0 -0 -0 -0 -0 -0 -0 -0 -0 -0 -0 -0 -0 -0 -0 -0 -0 -0 -0 -0
-0 -0 -0 -0 -0 -0 -0 -0 -0 -0 -0 -0 -0 -0 -0 -0 -0 -0 -0 -0 -0 -0 -0 -0 -0 -0 -0 -0 -0 -0 -0 -0 -0 -0 -0 -0 -0 -0 -0 -0 -0 -0 -0 -0
-0 -0 -0 -0 -0 -0 -0 -0 -0 -0 -0 -0 -0 -0 -0 -0 -0 -0 -0 -0 -0 -0 -0 -0 -0 -0 -0 -0 -0 -0 -0 -0 -0 -0 -0 -0 -0 -0 -0 -0 -0 -0 -0 -0
-0 -0 -0 -0 -0 -0 -0 -0 -0 -0 -0 -0 -0 -0 -0 -0 -0 -0 -0 -0 -0 -0 -0 -0 -0 -0 -0 -0 -0 -0 -0 -0 -0 -0 -0 -0 -0 -0 -0 -0 -0 -0 -0 -0
-0 -0 -0 -0 -0 -0 -0 -0 -0 -0 -0 -0 -0 -0 -0 -0 -0 -0 -0 -0 -0 -0 -0 -0 -0 -0 -0 -0 -0 -0 -0 -0 -0 -0 -0 -0 -0 -0 -0 -0 -0 -0 -0 -0
-0 -0 -0 -0 -0 -0 -0 -0 -0 -0 -0 -0 -0 -0 -0 -0 -0 -0 -0 -0 -0 -0 -0 -0 -0 -0 -0 -0 -0 -0 -0 -0 -0 -0 -0 -0 -0 -0 -0 -0 -0 -0 -0 -0
-2 -0 -0 -0 -0 -0 -0 -0 -0 -0 -0 -0 -0 -0 -0 -0 -0 -0 -0 -0 -0 -0 -0 -0 -0 -0 -0 -0 -0 -0 -0 -1 -0 -0 -0 -0 -0 -0 -0 -0 -0 -0 -0 -0
-0 -0 -0 -0 -0 -0 -0 -0 -0 -0 -0 -0 -0 -0 -0 -0 -0 -0 -0 -0 -0 -0 -0 -0 -0 -0 -0 -0 -0 -0 -1 -0 -0 -0 -0 -0 -0 -0 -0 -0 -0 -0 -0 -0
-0 -0 -0 -0 -0 -0 -0 -0 -0 -0 -0 -0 -0 -0 -0 -0 -0 -0 -0 -0 -0 -0 -0 -0 -0 -0 -0 -0 -0 -0 -2 -0 -0 -0 -0 -0 -0 -0 -0 -0 -0 -0 -0 -0
-0 -0 -0 -0 -0 -0 -0 -0 -0 -0 -0 -0 -0 -0 -0 -0 -0 -0 -0 -0 -0 -0 -0 -0 -0 -0 -0 -0 -0 -0 -0 -0 -0 -0 -0 -0 -0 -0 -0 -0 -0 -0 -0 -0
-0 -0 -0 -0 -0 -1 -0 -0 -0 -0 -0 -0 -0 -0 -0 -0 -0 -0 -0 -0 -0 -0 -0 -0 -0 -0 -0 -0 -0 -0 -0 -0 -0 -0 -0 -0 -0 -0 -0 -0 -0 -0 -0 -0
-0 -0 -0 -0 -0 -0 -0 -0 -0 -0 -0 -0 -0 -0 -0 -0 -0 -0 -0 -0 -0 -0 -0 -0 -0 -0 -0 -0 -0 -0 -0 -0 -0 -0 -0 -0 -0 -0 -0 -0 -0 -0 -0 -0
-0 -0 -0 -0 -0 -0 -0 -0 -0 -0 -0 -0 -0 -0 -0 -0 -0 -0 -0 -0 -0 -0 -0 -0 -0 -0 -0 -0 -0 -0 -0 -0 -0 -0 -0 -0 -0 -0 -0 -0 -0 -0 -0 -0
-0 -0 -0 -0 -0 -0 -0 -0 -0 -0 -0 -0 -0 -0 -0 -0 -0 -0 -0 -0 -0 -0 -0 -0 -0 -0 -0 -0 -0 -0 -0 -0 -0 -0 -0 -0 -0 -0 -0 -0 -0 -0 -0 -0
-0 -0 -0 -0 -0 -0 -0 -0 -0 -0 -0 -0 -0 -0 -0 -0 -0 -0 -0 -0 -0 -0 -0 -0 -0 -0 -0 -0 -0 -0 -0 -0 -0 -0 -0 -0 -0 -0 -0 -0 -0 -0 -0 -0
-0 -0 -0 -0 -0 -0 -0 -0 -0 -0 -0 -0 -0 -0 -0 -0 -0 -0 -0 -0 -0 -0 -0 -0 -0 -0 -0 -0 -0 -0 -0 -0 -0 -0 -0 -0 -0 -0 -0 -0 -0 -0 -0 -0
-0 -0 -0 -0 -0 -8 -5 -0 -0 -0 -0 -0 -0 -0 -0 -0 -0 -0 -0 -0 -0 -0 -0 -0 -0 -0 -0 -0 -0 -0 -0 -0 -0 -0 -0 -0 -0 -0 -0 -0 -0 -0 -0 -0
-0 -0 -0 -0 -0 -0 -0 -0 -0 -0 -0 -0 -0 -0 -0 -0 -0 -0 -0 -0 -0 -0 -0 -0 -0 -0 -0 -0 -0 -0 -0 -0 -0 -0 -0 -0 -0 -0 -0 -0 -0 -0 -0 -0
Wind_Speed
15 14 13 10 8 5 9 12 16 8 6 13 16 18 15 18 19 17 18 14 14 14 15 12 10 9 11 12 12 14 16 17 21 22 21 19 20 21 21 25 27 26 30 32
16 13 12 10 6 6 10 14 14 12 13 19 19 21 16 16 17 15 16 13 14 15 13 12 7 6 10 8 11 11 11 16 18 20 19 18 18 17 17 20 22 26 30 27
11 10 9 8 6 6 11 12 13 12 13 19 18 16 15 13 13 13 12 11 18 15 14 12 8 7 12 12 11 13 14 16 20 21 20 16 18 18 20 21 24 28 28 38
9 9 8 7 6 5 9 12 13 10 15 22 16 15 10 8 10 9 10 15 15 12 15 12 11 9 10 14 16 15 16 18 19 20 19 20 22 23 22 22 24 29 33 38
10 9 8 7 7 6 11 12 9 11 14 14 10 14 8 3 9 8 15 16 13 13 13 15 14 10 14 15 15 16 17 17 18 21 21 21 24 25 25 26 29 33 38 43
8 9 9 8 8 6 12 12 13 11 11 11 9 11 6 5 6 13 14 7 9 9 10 10 10 12 12 12 13 15 17 15 18 21 20 23 28 24 21 22 22 29 37 39
10 10 11 12 12 10 13 13 10 11 11 9 8 6 6 4 9 7 9 12 12 13 11 11 12 12 13 14 15 14 13 15 18 21 22 28 20 20 18 23 24 25 31 32
10 11 12 14 16 7 15 13 10 14 10 8 5 1 3 4 6 7 8 11 12 13 12 11 11 13 13 14 15 14 11 15 19 22 25 25 20 22 23 24 26 25 28 24
9 11 13 13 13 8 13 14 12 13 7 12 9 4 6 4 9 12 12 12 14 13 13 13 12 14 13 14 15 18 12 13 16 17 22 23 18 25 24 21 20 24 22 19
10 11 11 13 14 14 13 14 17 12 8 12 13 10 10 12 12 12 13 14 14 13 12 11 11 12 12 14 15 15 15 14 15 15 18 18 21 27 19 16 17 16 15 15
11 11 11 11 11 14 18 15 16 14 10 11 12 12 12 11 12 12 13 11 14 11 11 11 12 12 13 14 15 15 13 14 15 15 16 19 20 16 14 16 14 12 9 9
10 11 11 13 16 17 17 16 13 13 7 8 7 6 9 12 12 8 12 12 11 11 11 12 12 12 13 13 16 15 14 13 13 14 15 12 15 13 12 13 12 9 7 10
9 8 16 15 13 15 16 14 13 9 5 5 8 8 8 8 9 10 9 11 11 11 12 11 12 13 12 14 15 13 13 14 14 14 16 13 13 13 11 10 10 7 4 15
8 14 10 9 10 12 13 12 15 11 9 9 10 11 8 10 9 10 9 10 11 12 13 13 12 12 12 13 13 13 11 13 12 13 13 11 12 11 8 11 9 10 11 9
13 9 7 3 4 4 3 5 8 12 12 11 10 8 9 8 10 11 12 12 13 14 14 15 13 12 11 12 11 12 13 14 16 12 14 11 10 10 11 12 9 8 9 11
8 7 8 10 11 12 11 10 10 10 10 8 11 12 11 10 10 12 13 15 16 15 15 14 13 12 11 10 9 10 12 13 13 13 10 12 10 10 10 11 11 8 9 8
5 6 7 7 5 5 9 11 15 13 10 9 7 9 13 12 12 14 15 16 16 16 15 14 13 12 11 10 8 5 11 9 8 7 8 7 11 9 8 6 7 11 9 10
3 4 3 1 1 4 7 9 9 9 8 10 9 11 10 13 12 13 16 16 16 17 15 14 13 11 12 12 11 6 11 10 8 7 13 8 11 8 7 8 10 11 12 13
6 6 8 10 11 12 12 13 10 9 11 11 12 7 9 11 12 14 15 16 18 18 17 15 13 13 14 16 7 6 12 14 9 7 6 6 7 7 9 11 11 12 13 15
11 14 14 13 14 14 13 13 14 14 15 13 11 11 10 9 11 13 15 16 17 19 17 14 13 16 15 16 8 10 14 12 8 7 7 6 7 8 10 12 12 13 14 16
15 15 14 14 14 13 13 12 12 14 12 13 11 10 9 11 11 13 13 15 16 18 15 12 13 16 18 14 11 13 15 15 15 14 10 8 7 7 9 11 11 12 14 15
14 9 11 13 13 13 12 12 12 13 11 11 8 8 11 12 13 13 13 15 15 15 15 6 16 19 21 19 18 15 14 15 13 11 7 7 8 9 9 9 10 12 13 14
11 12 13 13 14 12 12 11 11 10 9 8 8 9 12 12 12 13 13 15 14 15 17 17 17 21 22 18 14 12 10 8 7 6 6 5 6 8 8 8 9 11 12 15
11 12 11 13 13 13 12 10 8 10 8 9 10 11 12 12 11 13 13 15 15 15 16 17 17 23 26 23 15 10 8 6 9 14 4 5 5 6 7 8 10 13 14 15
11 12 12 12 12 11 9 9 7 8 9 10 11 13 13 12 12 13 16 16 17 18 17 16 18 22 21 20 18 18 17 21 25 25 21 12 9 10 12 11 12 14 15 16
11 11 9 10 8 6 7 7 8 10 10 11 12 12 12 12 8 16 18 17 17 16 16 15 7 17 18 16 22 15 12 14 14 14 14 14 14 13 13 13 13 14 15 16
12 11 10 9 8 9 9 9 10 12 10 10 11 11 11 10 16 18 18 17 15 14 14 11 14 14 3 5 4 7 9 12 13 14 16 16 14 14 13 13 14 14 15 16
Wind_Direction
270 276 282 287 293 301 304 308 299 292 285 284 282 283 288 298 301 298 314 315 301 300 289 290 280 286 294 299 298 292 293 288 278 284 294 296 294 291 291 286 288 291 291 292
266 272 278 279 275 277 295 298 304 291 282 275 281 281 284 296 300 306 306 315 293 289 282 289 302 306 306 307 309 311 306 293 286 291 295 300 300 304 305 301 299 291 291 298
252 265 274 277 266 258 294 299 295 289 279 284 280 274 281 293 308 310 326 305 279 276 279 302 296 309 306 310 310 315 310 298 292 287 297 305 300 301 304 304 298 298 292 295
246 261 266 268 251 260 292 298 298 296 273 264 272 278 289 294 301 322 312 288 279 278 274 289 295 310 312 310 307 309 306 296 298 300 305 305 304 301 301 300 301 298 302 300
252 257 252 251 247 264 277 297 312 280 296 262 263 273 283 266 306 320 289 279 281 278 279 281 283 301 297 301 305 309 313 310 311 308 309 308 305 304 302 303 304 302 304 303
243 250 246 246 243 247 269 294 291 286 286 255 262 275 291 305 321 309 281 293 290 292 295 312 323 316 315 316 315 315 316 319 318 313 320 315 307 311 310 314 317 313 309 315
243 248 242 245 246 247 269 283 294 278 270 263 270 286 299 293 302 311 295 279 278 283 305 317 321 318 311 310 313 324 332 331 329 320 323 310 324 333 328 320 320 324 321 322
242 244 241 246 247 242 258 278 283 268 266 278 283 307 287 312 319 297 292 285 279 271 288 289 300 302 311 327 339 341 347 340 332 327 322 325 326 329 326 326 321 333 327 335
243 236 241 247 246 241 252 267 274 269 264 258 260 265 265 278 273 265 266 271 264 275 277 283 300 307 321 332 343 348 1 353 343 343 336 332 349 339 336 332 326 310 289 259
233 232 238 242 237 238 250 253 242 253 280 248 240 254 258 255 261 264 257 258 266 268 286 309 322 332 344 345 346 349 358 2 351 352 346 351 353 310 263 335 285 270 271 259
227 229 235 237 239 239 235 238 240 242 255 241 249 253 255 256 260 259 255 270 275 291 317 334 344 347 351 357 2 358 3 2 359 0 354 352 295 255 249 243 248 249 244 333
221 225 234 235 231 229 226 231 238 231 252 232 250 270 258 249 259 276 263 283 300 321 336 342 358 356 0 7 360 20 10 24 23 15 24 325 289 279 255 288 261 258 317 1
216 229 221 227 237 231 230 225 227 225 219 249 252 259 265 283 283 285 297 300 338 344 349 5 3 3 19 9 14 22 36 337 23 38 20 293 315 330 312 329 346 325 235 32
216 213 224 236 238 225 224 222 228 232 239 247 246 250 272 277 330 339 342 25 360 8 2 4 7 10 20 17 27 30 18 309 325 4 9 287 332 332 274 357 348 360 3 2
205 209 213 210 172 175 180 220 241 238 250 242 235 256 281 317 356 6 4 4 356 352 359 0 3 15 22 21 25 28 324 289 278 327 252 282 293 325 352 8 346 339 358 8
204 211 216 218 229 233 232 238 259 265 247 240 247 261 277 302 344 355 349 347 349 352 355 359 10 17 9 6 9 358 305 293 286 274 288 33 15 348 351 2 1 327 352 337
203 218 223 233 259 263 249 245 233 249 253 259 278 289 281 298 325 331 338 345 349 352 356 354 357 357 3 351 349 345 292 317 331 355 7 325 255 259 251 308 318 359 346 342
159 114 124 158 277 270 263 269 269 268 273 279 302 304 306 302 330 339 339 348 351 350 350 348 342 345 333 325 300 302 273 292 314 323 290 301 54 17 319 324 334 345 352 358
196 213 225 237 242 242 239 250 263 299 284 298 305 343 338 318 340 350 354 354 348 352 343 336 330 315 306 286 288 279 261 268 301 326 349 9 19 341 340 321 316 337 352 3
217 222 231 233 236 240 251 253 260 272 280 295 320 320 347 355 356 1 1 2 360 355 357 1 331 296 282 274 274 265 252 260 282 305 313 333 328 358 311 309 326 354 11 21
223 230 235 226 240 249 266 268 277 281 299 300 315 337 17 9 13 9 14 12 14 5 16 13 342 282 250 253 252 249 252 260 264 278 302 300 313 333 333 317 349 11 24 23
224 222 225 235 248 260 270 272 282 293 310 317 342 11 12 19 19 18 28 23 33 29 87 201 230 207 210 216 221 239 259 257 271 290 312 309 304 312 322 331 349 8 18 23
223 228 237 246 259 268 273 281 293 316 325 349 13 14 10 18 24 29 32 31 36 198 185 185 187 187 199 214 231 248 275 302 345 356 334 320 319 312 319 342 0 26 18 25
240 245 246 259 267 271 279 283 300 305 340 38 25 17 20 34 46 35 32 233 212 204 192 187 197 183 177 194 229 254 278 355 48 76 351 306 345 333 356 10 33 40 30 28
250 255 261 266 263 259 266 281 318 334 16 24 28 29 40 46 44 273 232 221 212 199 202 215 205 139 120 169 217 215 100 128 162 157 116 68 50 58 59 40 36 36 33 31
259 268 267 256 269 285 291 316 335 333 5 20 23 43 50 50 315 230 222 217 212 225 241 253 13 100 125 226 199 222 239 91 80 76 77 78 79 73 60 47 38 38 40 30
263 264 260 264 276 274 285 305 320 323 358 15 38 55 54 277 235 226 226 224 253 264 275 287 228 90 331 290 355 42 61 78 83 86 90 88 77 69 57 47 46 38 32 26